Regional Weather Roundup
Issued by NWS Midland/Odessa, TX

Skip options and go directly to product.
Home | Oldest Version | Next Version | Current Version | All | Text Only | Save Text | Print | Product List | Glossary On

Skip product version selection by date and time.   
593
ASUS44 KMAF 280501
RWRMAF
MIDLAND AREA WEATHER ROUNDUP
NATIONAL WEATHER SERVICE MIDLAND TX
1200 AM CDT THU MAY 28 2015

...IN SOUTHWEST TEXAS AND SOUTHEAST NEW MEXICO...

CITY           SKY/WX    TMP DP  RH WIND       PRES   REMARKS
ALPINE         CLEAR     70  63  78 E13       30.13F
ANDREWS        FAIR      73  65  76 S13G23    30.01F
ARTESIA        CLEAR     68  55  64 SE7       30.01S
BIG SPRING     CLOUDY    79  65  62 SE23G31   30.01F
CARLSBAD       PTCLDY    75  60  59 S14       29.99R
DRYDEN           N/A     79  66  64 SE9G16    29.98R
FORT STOCKTON  MOCLDY    72  67  84 SE16      30.02F
GUAD PASS      PTCLDY    65  58  78 NE30      30.12R
HOBBS          CLEAR     64  54  68 SE6       30.04R
MARFA          CLEAR     68  57  68 NE9       30.10F
MIDLAND AIRPK  CLOUDY    79  66  64 S20G28    30.02S
MIDLAND INTL   CLOUDY    77  66  68 S22G29    30.01F
ODESSA         CLOUDY    77  65  66 S13G25    30.03S
PECOS          PTCLDY    74  66  75 E15       29.95F
PRESIDIO       FAIR      84  53  34 MISG      29.91R
SEMINOLE       MOCLDY    71  60  67 S7        30.02R
SNYDER         CLOUDY    72  64  75 SE15      30.02F
WINK           MOCLDY    77  64  64 SE16G25   29.96S
$$
...OTHER STATIONS IN TEXAS...

CITY           SKY/WX    TMP DP  RH WIND       PRES   REMARKS
ABILENE        MOCLDY    75  70  84 S13       30.05R
AMARILLO       LGT RAIN  62  55  77 S25G37    30.04S
AUSTIN         CLOUDY    75  73  93 SE5       30.06R
BROWNSVILLE    CLOUDY    81  78  91 SE8       30.00R
CORPUS CHRISTI MOCLDY    81  76  84 SE14      30.00S
DALLAS FTW     MOCLDY    72  69  90 SE5       30.03R
DEL RIO        CLOUDY    80  71  74 SE13      29.97R
EL PASO        MOCLDY    80  21  11 NW6       29.96R
HOUSTON INT    PTCLDY    75  72  90 SE6       30.07F
LUBBOCK        CLOUDY    68  61  78 E16       30.02R
SAN ANGELO     CLOUDY    73  68  84 CALM      30.05R
SAN ANTONIO    CLOUDY    77  72  84 SE13      30.05R
WACO           MOCLDY    76  71  85 SE10      30.04F
WICHITA FALLS  NOT AVBL
$$
...OTHER LOCATIONS IN NEW MEXICO...

CITY           SKY/WX    TMP DP  RH WIND       PRES   REMARKS
ALAMAGORDO     CLOUDY    72  19  14 E9        30.00S
ALBUQUERQUE    MOCLDY    68  32  26 E10       30.05S
CANNON AFB     PTCLDY    64  58  80 S6        30.03R
CLOVIS         PTCLDY    64  57  77 S8          N/A
HOLLOMAN AFB   MOCLDY    69  26  19 E9        29.97S
ROSWELL        CLEAR     68  52  56 S9        30.00R
RUIDOSO        PTCLDY    55  23  28 S8        30.22R
SANTA FE       MOCLDY    56  35  45 N6        30.12F
TRUTH OR CONSE CLEAR     66  13  12 NW7       30.03R
TUCUMCARI      PTCLDY    64  51  62 S3        29.99S
$$

USA.gov is the U.S. government's official web portal to all federal, state and local government web resources and services.